Theta_e
335 334 334 339 338 338 338 338 337 338 340 341 343 341 340 337 336 337 343 340 338 341 338 337 336 335 334 333 334 333 333 333 333 333 331 333 332 333 331 330 328 326 325
339 338 337 338 338 337 338 338 337 337 338 340 342 341 341 340 337 335 339 343 340 341 342 342 337 334 335 335 336 335 336 335 335 336 334 334 334 332 331 334 334 330 328
340 339 339 339 340 338 337 338 337 336 337 338 343 342 342 342 342 338 336 341 342 341 341 343 341 333 334 336 337 336 336 336 336 336 337 336 336 336 333 330 331 335 332
343 341 340 339 340 339 339 338 339 336 336 337 343 344 344 344 343 343 339 336 337 342 342 343 341 341 332 334 335 335 336 337 336 337 337 337 337 337 336 333 331 331 335
340 342 338 333 337 341 340 338 340 339 336 336 343 343 344 344 344 343 343 339 337 339 341 343 342 342 335 331 333 334 334 335 336 337 338 338 337 336 336 336 335 333 332
338 338 339 338 336 340 341 340 339 340 339 336 339 344 343 344 343 343 343 344 344 342 342 343 344 343 342 334 331 332 335 338 335 335 336 336 337 337 336 336 336 336 335
336 337 340 338 337 340 338 337 336 339 339 336 339 342 342 341 341 343 343 343 343 344 344 344 344 344 342 341 338 332 334 336 339 337 337 337 337 337 337 337 336 336 336
339 339 338 339 338 337 336 336 336 337 339 337 338 341 340 340 342 343 344 344 344 343 343 343 343 343 343 342 338 338 338 336 338 339 338 338 338 337 337 337 338 336 337
338 338 337 338 339 337 337 337 336 337 338 337 338 340 339 339 340 340 341 342 342 342 341 341 342 342 342 343 343 342 343 341 337 339 339 340 339 339 337 338 338 338 339
336 336 338 338 339 338 337 336 336 337 338 337 336 339 339 338 339 340 341 340 341 342 341 341 341 341 342 343 342 342 342 341 341 339 340 341 340 339 337 338 339 339 339
333 335 336 336 337 336 336 336 336 336 338 338 336 336 338 339 339 338 338 338 339 341 341 337 338 338 340 342 342 341 341 340 341 342 341 340 340 340 337 336 338 338 338
337 337 336 336 336 336 335 336 336 336 336 338 337 336 338 337 339 339 338 337 337 336 335 335 338 338 340 341 340 341 342 342 341 341 341 341 338 340 338 337 336 336 336
336 336 337 337 337 337 334 337 337 336 336 338 337 337 337 338 338 338 338 337 336 337 337 336 339 339 340 341 342 342 341 341 341 341 341 341 340 340 338 337 336 335 335
337 336 334 334 335 336 336 337 337 336 335 336 337 337 337 337 338 338 338 337 337 338 337 337 339 339 340 340 339 340 340 339 339 340 341 341 340 337 335 337 337 335 335
336 336 336 337 336 336 337 338 337 336 336 336 337 338 338 338 338 338 338 337 338 337 337 337 338 338 339 340 338 338 338 338 338 338 338 339 338 336 337 337 336 336 335
337 337 336 336 336 336 337 337 337 336 336 336 336 337 337 337 339 339 338 337 338 338 338 337 337 337 338 339 339 339 337 337 338 337 338 338 336 337 336 335 335 335 335
337 337 336 336 337 337 337 337 337 336 336 336 336 336 336 338 339 339 338 338 338 338 337 337 336 337 337 338 338 339 337 337 336 333 332 335 334 334 335 333 333 332 334
338 336 337 337 337 338 337 337 336 335 336 337 337 337 338 339 339 339 339 338 338 338 337 336 335 336 337 336 337 337 336 334 332 331 329 329 333 333 330 330 330 329 325
335 337 337 337 337 337 338 338 338 338 338 338 338 338 338 338 338 338 338 337 337 336 336 335 335 335 336 336 335 332 330 329 327 328 328 330 330 330 328 328 328 328 331
333 334 336 336 336 336 336 336 336 336 336 336 337 337 337 337 337 336 335 335 335 335 336 334 334 334 333 331 331 332 330 327 327 329 326 329 332 328 323 323 331 331 330
332 332 332 332 333 332 332 333 333 335 335 335 336 336 335 334 334 333 333 333 333 334 331 330 330 331 332 331 331 331 330 329 330 330 328 326 328 329 328 327 328 327 321
332 332 332 332 332 332 332 332 332 332 332 333 333 332 332 331 331 331 331 331 331 331 331 330 330 329 329 329 329 328 328 329 328 326 325 321 319 316 315 315 315 316 317
332 332 331 331 330 330 329 329 330 330 331 331 331 330 330 331 330 330 328 328 326 327 328 328 328 327 328 329 328 328 325 325 325 322 322 320 319 320 319 319 319 319 317
331 330 329 330 330 329 327 327 327 327 328 328 327 325 325 324 321 320 321 323 324 326 327 327 325 325 325 325 326 325 325 324 323 322 322 320 320 319 317 317 317 317 313
328 324 324 327 329 327 325 325 325 326 326 324 323 322 321 318 314 313 315 315 314 314 312 313 314 314 312 311 311 312 313 315 316 316 316 316 316 316 317 317 314 312 308
330 325 324 325 327 325 324 323 323 323 324 323 321 320 317 316 314 314 315 314 315 314 314 314 313 312 312 313 313 313 313 313 312 311 310 310 310 309 308 307 308 307 307
Wind_Speed
15 15 15 14 12 10 8 8 9 9 11 12 14 14 15 18 23 21 17 16 15 14 13 12 13 13 13 13 13 13 12 12 11 11 10 9 9 9 8 8 8 8 8
15 17 17 19 16 12 9 9 11 10 10 13 13 14 14 15 20 23 23 18 17 15 16 17 15 14 15 15 14 14 14 13 13 13 11 11 9 10 10 10 9 9 9
19 19 18 21 20 19 15 13 14 15 13 13 13 15 16 16 18 22 25 23 19 17 17 17 17 15 16 15 16 15 15 15 14 14 14 13 12 13 12 12 11 11 10
21 20 22 23 23 24 23 19 16 17 15 14 15 16 16 18 17 19 23 26 24 20 20 20 19 17 17 18 17 17 17 18 16 17 15 16 15 15 14 14 14 12 14
19 20 23 24 26 27 26 23 20 19 19 17 15 14 14 15 16 17 19 23 26 24 23 23 18 18 20 20 20 19 18 19 18 17 17 16 17 16 16 16 17 16 16
20 23 21 20 23 25 25 24 24 22 19 18 17 16 14 15 15 13 15 20 17 18 22 23 21 20 21 22 21 20 20 21 20 18 18 18 18 19 17 18 19 19 19
24 25 24 22 22 24 23 23 23 22 20 19 19 18 15 15 16 14 13 16 16 16 19 19 18 19 20 22 24 23 23 23 22 20 18 18 18 19 19 18 20 21 22
25 24 24 25 25 25 23 22 21 23 20 19 17 16 13 17 17 17 17 17 16 15 17 17 18 19 19 21 22 23 25 26 24 24 23 21 18 19 17 19 19 21 21
24 25 26 23 24 25 22 19 21 23 22 21 20 13 8 9 14 18 18 17 15 16 15 16 18 19 20 21 22 23 24 27 27 25 25 20 21 20 19 19 19 19 21
21 22 23 23 22 21 21 21 20 23 23 22 22 21 13 7 8 8 18 18 17 17 15 14 15 17 19 22 23 26 25 24 26 27 30 17 22 20 20 18 19 20 19
18 22 21 22 22 21 22 21 22 24 25 24 25 22 25 15 12 7 7 13 15 15 14 13 14 15 18 21 23 23 24 22 24 25 25 27 23 21 22 20 19 20 19
13 17 21 20 19 19 18 19 21 23 25 25 26 25 22 25 18 13 12 11 12 12 15 17 16 15 17 18 18 18 18 19 20 22 24 23 22 20 21 21 21 22 19
8 8 10 16 19 18 17 17 21 22 25 25 24 25 25 24 26 24 20 19 19 17 15 13 12 11 12 13 13 14 14 15 17 19 19 19 18 20 20 18 17 18 18
7 4 4 6 10 13 14 16 19 20 22 24 24 24 26 27 26 25 21 19 18 19 17 13 9 8 8 11 10 10 12 13 13 13 16 19 19 19 17 17 16 14 14
5 2 2 5 7 10 12 14 17 17 20 21 22 21 19 21 27 25 22 20 19 18 15 13 5 6 9 13 12 10 11 12 13 11 13 17 17 19 18 17 17 18 18
7 2 1 4 6 7 9 12 14 15 17 19 19 21 20 20 20 22 22 22 22 22 16 9 11 12 9 8 10 10 9 9 8 7 9 13 14 17 17 15 14 16 16
7 5 3 1 3 5 6 8 10 12 13 15 17 19 20 20 22 22 22 23 24 19 18 17 11 10 9 6 8 10 7 7 9 9 8 7 8 11 12 14 13 13 13
6 8 8 7 6 4 4 4 6 8 9 10 12 14 16 18 17 21 19 19 20 19 16 13 12 9 6 4 4 6 7 8 7 8 6 6 8 9 7 7 10 10 10
9 9 8 9 11 10 7 5 3 2 3 4 6 7 9 11 14 15 15 12 13 12 11 13 14 11 7 4 3 3 2 2 4 7 7 6 6 5 5 7 10 10 11
9 11 10 10 10 10 9 8 6 4 2 1 2 3 3 5 6 5 7 9 9 8 6 3 2 3 2 3 7 8 8 8 8 7 7 6 7 6 7 6 6 6 9
7 9 9 9 10 11 14 13 11 10 7 3 2 5 6 7 6 4 4 7 5 3 3 4 2 5 5 6 7 10 10 11 10 9 12 12 11 11 12 10 11 11 7
5 6 7 8 7 9 10 8 7 6 5 6 6 6 5 4 3 2 3 3 4 5 4 4 4 5 6 9 10 11 13 13 10 8 7 8 11 11 11 10 10 9 7
2 4 5 6 6 7 9 8 5 5 5 7 7 7 5 4 4 5 5 3 3 3 2 3 4 5 6 5 5 6 10 7 7 5 6 6 5 3 3 4 6 7 4
1 2 3 3 4 7 9 9 8 7 6 7 9 11 11 12 13 12 10 9 10 9 11 10 9 4 5 4 2 4 4 2 2 3 5 6 4 4 7 7 7 7 6
3 1 0 2 5 7 8 6 7 7 7 8 10 11 10 10 13 11 8 9 9 11 11 10 10 9 9 9 9 9 6 4 3 3 4 5 4 7 9 10 11 11 12
6 4 2 3 5 4 5 4 3 4 3 5 6 7 9 8 9 9 7 7 7 8 8 8 8 7 6 6 4 4 4 3 2 2 2 3 4 4 4 7 7 8 11
Wind_Direction
236 230 228 225 211 220 233 242 233 226 221 217 219 225 226 225 223 225 226 222 216 220 215 218 225 222 220 221 223 220 218 218 217 217 215 213 217 224 212 206 207 206 201
238 237 228 231 229 227 244 253 243 236 236 228 224 227 223 228 230 228 226 229 227 225 233 231 226 228 228 224 228 228 225 224 224 222 220 213 221 232 230 222 218 216 212
246 246 233 234 233 238 252 256 248 240 241 238 233 219 221 232 236 232 228 226 231 238 235 235 230 232 235 231 232 235 234 233 231 227 226 223 225 227 228 231 233 226 223
257 245 245 242 240 243 251 252 251 243 244 246 238 230 232 232 239 238 230 231 234 234 239 231 233 235 235 236 236 238 237 238 236 235 231 230 230 232 232 232 236 235 233
259 243 253 249 247 247 246 242 248 245 243 245 239 231 229 231 241 237 232 230 233 243 247 235 241 248 238 236 239 241 244 243 239 238 238 236 237 239 238 236 235 235 236
255 260 254 250 248 239 237 240 241 242 242 241 237 231 235 230 230 238 232 225 239 253 235 235 243 249 242 241 240 243 245 245 242 238 241 239 246 241 246 242 239 237 236
253 254 259 255 245 235 239 241 241 239 236 233 235 231 225 227 231 224 224 223 232 238 235 235 238 247 246 244 241 243 247 250 245 238 242 246 250 244 249 246 241 240 238
256 255 250 253 248 240 233 239 238 234 228 228 233 225 219 229 229 232 230 227 231 231 231 236 238 247 254 248 245 246 251 250 248 242 249 248 255 246 252 247 248 243 244
260 252 253 254 243 239 234 239 236 229 224 224 226 216 210 227 234 233 232 232 230 231 240 244 245 247 251 249 251 251 261 253 248 245 248 250 251 251 249 250 250 248 249
273 269 259 252 242 231 241 238 235 230 226 226 231 227 222 224 219 226 231 234 235 235 239 243 252 256 257 254 254 253 260 255 249 246 250 260 258 248 244 251 247 246 250
272 263 258 245 243 238 239 234 233 230 226 229 228 229 229 236 229 226 234 232 240 242 237 255 264 262 256 254 255 255 251 250 251 252 255 259 262 243 240 245 252 249 254
300 270 246 244 242 236 234 233 230 229 226 228 228 231 235 231 226 237 257 261 252 251 260 260 267 270 257 253 254 251 249 257 252 252 257 260 246 243 243 245 251 250 256
319 294 249 238 237 229 232 237 230 228 225 229 228 236 235 237 243 248 258 263 268 271 266 263 268 278 266 252 252 251 255 252 250 254 250 248 245 248 241 248 252 256 254
330 330 248 214 208 217 231 232 223 228 226 230 231 234 241 238 242 249 253 257 262 267 270 268 271 273 252 243 247 247 251 256 255 253 247 244 240 234 237 247 251 253 236
330 315 233 222 222 233 227 223 221 223 223 230 234 237 243 245 238 241 248 253 254 253 264 254 248 268 261 242 246 260 260 256 256 254 258 250 244 229 222 240 246 243 242
15 2 287 249 246 230 219 220 222 222 226 230 235 237 239 243 243 240 248 251 249 252 249 261 272 289 289 260 252 257 265 270 264 265 261 241 237 235 234 231 242 250 247
34 37 43 13 248 224 212 210 215 217 225 233 234 235 237 241 241 241 244 246 241 235 251 261 269 282 280 293 282 264 246 246 243 230 233 235 235 242 243 248 250 245 246
39 47 49 64 83 128 162 182 201 214 231 232 231 238 244 243 235 238 242 245 249 253 245 245 261 288 283 287 278 238 235 239 227 212 216 235 243 243 247 245 238 247 240
51 54 56 66 72 81 94 112 131 179 205 222 236 245 245 246 243 246 256 258 269 257 261 267 270 269 245 241 206 180 192 264 262 249 242 237 245 233 225 231 230 225 228
59 63 64 68 74 77 80 83 83 89 94 164 220 231 239 222 233 238 259 261 263 271 159 17 250 143 188 250 264 260 251 244 248 236 240 247 221 226 234 239 239 247 250
75 69 65 66 68 70 74 75 73 69 63 66 120 183 186 190 196 231 247 224 203 212 306 354 286 247 259 269 270 266 260 252 240 238 233 230 235 220 204 195 225 227 213
75 66 67 70 72 76 74 73 75 76 79 86 80 73 64 49 25 348 300 285 308 307 291 289 290 288 276 267 268 284 281 262 238 235 224 194 190 179 167 174 179 181 191
93 80 76 78 78 79 73 60 71 90 80 88 89 86 77 97 88 75 68 63 52 23 291 284 284 288 310 303 301 309 270 216 248 214 216 210 220 232 230 220 209 216 219
147 125 122 100 93 97 78 60 57 67 75 84 89 87 90 94 89 76 68 66 60 60 61 56 50 60 41 3 287 48 34 285 276 259 242 235 256 258 224 209 213 244 257
191 183 147 128 108 106 94 75 56 58 80 100 105 103 93 98 91 77 58 56 59 61 57 54 52 49 45 39 37 32 29 28 9 345 323 314 266 230 230 240 248 245 235
209 221 233 153 134 125 123 108 66 42 63 113 119 113 110 104 95 84 57 50 42 67 58 49 52 55 51 43 27 11 13 350 338 300 265 253 225 229 252 248 241 243 240